Satellite: ISS
Catalog number: 25544
Epoch time:      08297.83084929
Element set:     502
Inclination:      051.6421 deg
RA of node:       076.8556 deg
Eccentricity:    0.0003245
Arg of perigee:   262.6192 deg
Mean anomaly:     232.9102 deg
Mean motion:   15.72427686 rev/day
Decay rate:      9.745e-05 rev/day^2
Epoch rev:           56877
Checksum:              327

Satellite: CO-58
Catalog number: 28895
Epoch time:      08296.34633734
Element set:    0150
Inclination:      098.0804 deg
RA of node:       187.2416 deg
Eccentricity:    0.0018475
Arg of perigee:   015.1944 deg
Mean anomaly:     344.9818 deg
Mean motion:   14.59707391 rev/day
Decay rate:       2.14e-06 rev/day^2
Epoch rev:           15903
Checksum:              334

Satellite: FALCON
Catalog number: 30776
Epoch time:      08297.77645523
Element set:     423
Inclination:      035.4331 deg
RA of node:       093.5788 deg
Eccentricity:    0.0001682
Arg of perigee:   358.2587 deg
Mean anomaly:     001.8119 deg
Mean motion:   15.03081947 rev/day
Decay rate:       4.01e-06 rev/day^2
Epoch rev:            8950
Checksum:              305

Satellite: MAST
Catalog number: 31126
Epoch time:      08296.60075202
Element set:     443
Inclination:      098.0234 deg
RA of node:       355.8447 deg
Eccentricity:    0.0093945
Arg of perigee:   297.4746 deg
Mean anomaly:     061.6942 deg
Mean motion:   14.53452313 rev/day
Decay rate:        7.4e-07 rev/day^2
Epoch rev:            8052
Checksum:              297

Satellite: CAPE1
Catalog number: 31130
Epoch time:      08297.64388850
Element set:     436
Inclination:      098.0244 deg
RA of node:       355.5608 deg
Eccentricity:    0.0101766
Arg of perigee:   298.0117 deg
Mean anomaly:     061.0802 deg
Mean motion:   14.51999683 rev/day
Decay rate:       -6.9e-07 rev/day^2
Epoch rev:            8036
Checksum:              313

Satellite: COMPASS
Catalog number: 32787
Epoch time:      08297.71883598
Element set:     181
Inclination:      097.9753 deg
RA of node:       357.1453 deg
Eccentricity:    0.0017028
Arg of perigee:   081.4199 deg
Mean anomaly:     278.8927 deg
Mean motion:   14.81480980 rev/day
Decay rate:        9.3e-07 rev/day^2
Epoch rev:            2643
Checksum:              353

Satellite: AAUSAT2
Catalog number: 32788
Epoch time:      08296.89520045
Element set:    0181
Inclination:      097.9763 deg
RA of node:       356.3498 deg
Eccentricity:    0.0017003
Arg of perigee:   085.2486 deg
Mean anomaly:     275.0636 deg
Mean motion:   14.81593254 rev/day
Decay rate:       1.21e-06 rev/day^2
Epoch rev:           02631
Checksum:              317

Satellite: DO-64
Catalog number: 32789
Epoch time:      08296.84116879
Element set:    0198
Inclination:      097.9774 deg
RA of node:       356.3398 deg
Eccentricity:    0.0016893
Arg of perigee:   083.6551 deg
Mean anomaly:     276.6577 deg
Mean motion:   14.81505052 rev/day
Decay rate:       2.65e-06 rev/day^2
Epoch rev:           02630
Checksum:              366

Satellite: CO-66
Catalog number: 32791
Epoch time:      08297.80360672
Element set:     176
Inclination:      097.9777 deg
RA of node:       357.2518 deg
Eccentricity:    0.0017367
Arg of perigee:   079.0063 deg
Mean anomaly:     281.3104 deg
Mean motion:   14.81332024 rev/day
Decay rate:       3.06e-06 rev/day^2
Epoch rev:            2641
Checksum:              311

Satellite: RS-30
Catalog number: 32953
Epoch time:      08297.38886356
Element set:     139
Inclination:      082.5037 deg
RA of node:       043.8560 deg
Eccentricity:    0.0018519
Arg of perigee:   338.2496 deg
Mean anomaly:     021.7797 deg
Mean motion:   12.42997857 rev/day
Decay rate:        1.0e-07 rev/day^2
Epoch rev:            1897
Checksum:              345

/EX



_______________________________________________
Via the Keps mailing list courtesy of AMSAT-NA
http://amsat.org/mailman/listinfo/keps

--- ViaMAIL!/WC v1.60d
 * Origin: Chowdanet (401-724-4410) telnet://chowdanet.com  (1:323/120)